Year,Month,Day,Hour,Minute,Value (Times are PST for temperature in C)
2006,06,25,00,00,17.50
2006,06,25,00,01,17.50
2006,06,25,00,02,17.50
2006,06,25,00,03,17.50
2006,06,25,00,04,17.40
2006,06,25,00,05,17.40
2006,06,25,00,06,17.40
2006,06,25,00,07,17.40
2006,06,25,00,08,17.40
2006,06,25,00,09,17.40
2006,06,25,00,10,17.30
2006,06,25,00,11,17.30
2006,06,25,00,12,17.30
2006,06,25,00,13,17.30
2006,06,25,00,14,17.30
2006,06,25,00,15,17.30
2006,06,25,00,16,17.30
2006,06,25,00,17,17.30
2006,06,25,00,18,17.30
2006,06,25,00,19,17.30
2006,06,25,00,20,17.30
2006,06,25,00,21,17.30
2006,06,25,00,22,17.30
2006,06,25,00,23,17.30
2006,06,25,00,24,17.30
2006,06,25,00,25,17.30
2006,06,25,00,26,17.20
2006,06,25,00,27,17.20
2006,06,25,00,28,17.20
2006,06,25,00,29,17.20
2006,06,25,00,30,17.20
2006,06,25,00,31,17.20
2006,06,25,00,32,17.20
2006,06,25,00,33,17.30
2006,06,25,00,34,17.30
2006,06,25,00,35,17.30
2006,06,25,00,36,17.20
2006,06,25,00,37,17.20
2006,06,25,00,38,17.20
2006,06,25,00,39,17.10
2006,06,25,00,40,17.10
2006,06,25,00,41,17.10
2006,06,25,00,42,17.00
2006,06,25,00,43,17.00
2006,06,25,00,44,17.00
2006,06,25,00,45,17.00
2006,06,25,00,46,16.90
2006,06,25,00,47,16.90
2006,06,25,00,48,16.90
2006,06,25,00,49,16.80
2006,06,25,00,50,16.70
2006,06,25,00,51,16.70
2006,06,25,00,52,16.70
2006,06,25,00,53,16.60
2006,06,25,00,54,16.60
2006,06,25,00,55,16.50
2006,06,25,00,56,16.40
2006,06,25,00,57,16.40
2006,06,25,00,58,16.40
2006,06,25,00,59,16.40
2006,06,25,01,00,16.30
2006,06,25,01,01,16.30
2006,06,25,01,02,16.30
2006,06,25,01,03,16.20
2006,06,25,01,04,16.20
2006,06,25,01,05,16.20
2006,06,25,01,06,16.20
2006,06,25,01,07,16.20
2006,06,25,01,08,16.20
2006,06,25,01,09,16.10
2006,06,25,01,10,16.10
2006,06,25,01,11,16.10
2006,06,25,01,12,16.10
2006,06,25,01,13,16.10
2006,06,25,01,14,16.10
2006,06,25,01,15,16.10
2006,06,25,01,16,16.10
2006,06,25,01,17,16.10
2006,06,25,01,18,16.10
2006,06,25,01,19,16.10
2006,06,25,01,20,16.10
2006,06,25,01,21,16.10
2006,06,25,01,22,16.10
2006,06,25,01,23,16.00
2006,06,25,01,24,15.90
2006,06,25,01,25,15.90
2006,06,25,01,26,15.90
2006,06,25,01,27,15.90
2006,06,25,01,28,15.90
2006,06,25,01,29,15.90
2006,06,25,01,30,15.90
2006,06,25,01,31,15.90
2006,06,25,01,32,16.00
2006,06,25,01,33,16.10
2006,06,25,01,34,16.10
2006,06,25,01,35,16.00
2006,06,25,01,36,15.90
2006,06,25,01,37,15.90
2006,06,25,01,38,15.90
2006,06,25,01,39,15.80
2006,06,25,01,40,15.80
2006,06,25,01,41,15.80
2006,06,25,01,42,15.80
2006,06,25,01,43,15.80
2006,06,25,01,44,15.80
2006,06,25,01,45,15.70
2006,06,25,01,46,15.70
2006,06,25,01,47,15.70
2006,06,25,01,48,15.70
2006,06,25,01,49,15.60
2006,06,25,01,50,15.60
2006,06,25,01,51,15.60
2006,06,25,01,52,15.60
2006,06,25,01,53,15.60
2006,06,25,01,54,15.50
2006,06,25,01,55,15.50
2006,06,25,01,56,15.50
2006,06,25,01,57,15.50
2006,06,25,01,58,15.50
2006,06,25,01,59,15.50
2006,06,25,02,00,15.40
2006,06,25,02,01,15.40
2006,06,25,02,02,15.40
2006,06,25,02,03,15.40
2006,06,25,02,04,15.40
2006,06,25,02,05,15.40
2006,06,25,02,06,15.30
2006,06,25,02,07,15.30
2006,06,25,02,08,15.30
2006,06,25,02,09,15.30
2006,06,25,02,10,15.30
2006,06,25,02,11,15.30
2006,06,25,02,12,15.30
2006,06,25,02,13,15.30
2006,06,25,02,14,15.30
2006,06,25,02,15,15.30
2006,06,25,02,16,15.30
2006,06,25,02,17,15.20
2006,06,25,02,18,15.30
2006,06,25,02,19,15.30
2006,06,25,02,20,15.30
2006,06,25,02,21,15.30
2006,06,25,02,22,15.30
2006,06,25,02,23,15.30
2006,06,25,02,24,15.30
2006,06,25,02,25,15.30
2006,06,25,02,26,15.30
2006,06,25,02,27,15.20
2006,06,25,02,28,15.20
2006,06,25,02,29,15.20
2006,06,25,02,30,15.20
2006,06,25,02,31,15.20
2006,06,25,02,32,15.20
2006,06,25,02,33,15.30
2006,06,25,02,34,15.30
2006,06,25,02,35,15.30
2006,06,25,02,36,15.30
2006,06,25,02,37,15.30
2006,06,25,02,38,15.20
2006,06,25,02,39,15.20
2006,06,25,02,40,15.20
2006,06,25,02,41,15.20
2006,06,25,02,42,15.20
2006,06,25,02,43,15.10
2006,06,25,02,44,15.10
2006,06,25,02,45,15.10
2006,06,25,02,46,15.10
2006,06,25,02,47,15.10
2006,06,25,02,48,15.10
2006,06,25,02,49,15.10
2006,06,25,02,50,15.20
2006,06,25,02,51,15.20
2006,06,25,02,52,15.20
2006,06,25,02,53,15.20
2006,06,25,02,54,15.20
2006,06,25,02,55,15.20
2006,06,25,02,56,15.20
2006,06,25,02,57,15.30
2006,06,25,02,58,15.30
2006,06,25,02,59,15.30
2006,06,25,03,00,15.30
2006,06,25,03,01,15.30
2006,06,25,03,02,15.30
2006,06,25,03,03,15.30
2006,06,25,03,04,15.20
2006,06,25,03,05,15.20
2006,06,25,03,06,15.20
2006,06,25,03,07,15.20
2006,06,25,03,08,15.10
2006,06,25,03,09,15.10
2006,06,25,03,10,15.10
2006,06,25,03,11,15.00
2006,06,25,03,12,15.00
2006,06,25,03,13,15.00
2006,06,25,03,14,15.00
2006,06,25,03,15,15.10
2006,06,25,03,16,15.10
2006,06,25,03,17,15.20
2006,06,25,03,18,15.20
2006,06,25,03,19,15.20
2006,06,25,03,20,15.20
2006,06,25,03,21,15.20
2006,06,25,03,22,15.20
2006,06,25,03,23,15.10
2006,06,25,03,24,15.10
2006,06,25,03,25,15.10
2006,06,25,03,26,15.10
2006,06,25,03,27,15.00
2006,06,25,03,28,15.00
2006,06,25,03,29,14.90
2006,06,25,03,30,14.90
2006,06,25,03,31,14.90
2006,06,25,03,32,14.80
2006,06,25,03,33,14.80
2006,06,25,03,34,14.80
2006,06,25,03,35,14.80
2006,06,25,03,36,14.80
2006,06,25,03,37,14.80
2006,06,25,03,38,14.80
2006,06,25,03,39,14.80
2006,06,25,03,40,14.80
2006,06,25,03,41,14.80
2006,06,25,03,42,14.80
2006,06,25,03,43,14.80
2006,06,25,03,44,14.80
2006,06,25,03,45,14.80
2006,06,25,03,46,14.80
2006,06,25,03,47,14.80
2006,06,25,03,48,14.80
2006,06,25,03,49,14.90
2006,06,25,03,50,14.90
2006,06,25,03,51,14.90
2006,06,25,03,52,15.00
2006,06,25,03,53,15.00
2006,06,25,03,54,15.00
2006,06,25,03,55,15.00
2006,06,25,03,56,15.00
2006,06,25,03,57,15.10
2006,06,25,03,58,15.10
2006,06,25,03,59,15.10
2006,06,25,04,00,15.00
2006,06,25,04,01,15.00
2006,06,25,04,02,15.00
2006,06,25,04,03,14.90
2006,06,25,04,04,14.90
2006,06,25,04,05,14.90
2006,06,25,04,06,14.80
2006,06,25,04,07,14.80
2006,06,25,04,08,14.80
2006,06,25,04,09,14.80
2006,06,25,04,10,14.90
2006,06,25,04,11,14.80
2006,06,25,04,12,14.80
2006,06,25,04,13,14.80
2006,06,25,04,14,14.80
2006,06,25,04,15,14.80
2006,06,25,04,16,14.80
2006,06,25,04,17,14.80
2006,06,25,04,18,14.80
2006,06,25,04,19,14.70
2006,06,25,04,20,14.70
2006,06,25,04,21,14.70
2006,06,25,04,22,14.70
2006,06,25,04,23,14.70
2006,06,25,04,24,14.70
2006,06,25,04,25,14.70
2006,06,25,04,26,14.70
2006,06,25,04,27,14.70
2006,06,25,04,28,14.70
2006,06,25,04,29,14.70
2006,06,25,04,30,14.70
2006,06,25,04,31,14.70
2006,06,25,04,32,14.70
2006,06,25,04,33,14.60
2006,06,25,04,34,14.60
2006,06,25,04,35,14.60
2006,06,25,04,36,14.60
2006,06,25,04,37,14.60
2006,06,25,04,38,14.50
2006,06,25,04,39,14.50
2006,06,25,04,40,14.50
2006,06,25,04,41,14.40
2006,06,25,04,42,14.40
2006,06,25,04,43,14.30
2006,06,25,04,44,14.30
2006,06,25,04,45,14.30
2006,06,25,04,46,14.30
2006,06,25,04,47,14.30
2006,06,25,04,48,14.20
2006,06,25,04,49,14.20
2006,06,25,04,50,14.20
2006,06,25,04,51,14.20
2006,06,25,04,52,14.20
2006,06,25,04,53,14.20
2006,06,25,04,54,14.20
2006,06,25,04,55,14.20
2006,06,25,04,56,14.20
2006,06,25,04,57,14.20
2006,06,25,04,58,14.20
2006,06,25,04,59,14.20
2006,06,25,05,00,14.20
2006,06,25,05,01,14.20
2006,06,25,05,02,14.20
2006,06,25,05,03,14.20
2006,06,25,05,04,14.20
2006,06,25,05,05,14.20
2006,06,25,05,06,14.20
2006,06,25,05,07,14.20
2006,06,25,05,08,14.20
2006,06,25,05,09,14.10
2006,06,25,05,10,14.10
2006,06,25,05,11,14.10
2006,06,25,05,12,14.00
2006,06,25,05,13,14.00
2006,06,25,05,14,14.00
2006,06,25,05,15,14.00
2006,06,25,05,16,14.00
2006,06,25,05,17,14.00
2006,06,25,05,18,14.00
2006,06,25,05,19,14.00
2006,06,25,05,20,14.00
2006,06,25,05,21,14.00
2006,06,25,05,22,14.00
2006,06,25,05,23,14.00
2006,06,25,05,24,14.00
2006,06,25,05,25,14.00
2006,06,25,05,26,14.00
2006,06,25,05,27,14.00
2006,06,25,05,28,14.00
2006,06,25,05,29,14.00
2006,06,25,05,30,14.00
2006,06,25,05,31,14.00
2006,06,25,05,32,14.10
2006,06,25,05,33,14.10
2006,06,25,05,34,14.10
2006,06,25,05,35,14.10
2006,06,25,05,36,14.20
2006,06,25,05,37,14.20
2006,06,25,05,38,14.20
2006,06,25,05,39,14.20
2006,06,25,05,40,14.20
2006,06,25,05,41,14.20
2006,06,25,05,42,14.20
2006,06,25,05,43,14.20
2006,06,25,05,44,14.20
2006,06,25,05,45,14.20
2006,06,25,05,46,14.20
2006,06,25,05,47,14.20
2006,06,25,05,48,14.20
2006,06,25,05,49,14.20
2006,06,25,05,50,14.20
2006,06,25,05,51,14.20
2006,06,25,05,52,14.20
2006,06,25,05,53,14.20
2006,06,25,05,54,14.20
2006,06,25,05,55,14.20
2006,06,25,05,56,14.20
2006,06,25,05,57,14.30
2006,06,25,05,58,14.30
2006,06,25,05,59,14.30
2006,06,25,06,00,14.30
2006,06,25,06,01,14.40
2006,06,25,06,02,14.40
2006,06,25,06,03,14.40
2006,06,25,06,04,14.50
2006,06,25,06,05,14.50
2006,06,25,06,06,14.50
2006,06,25,06,07,14.50
2006,06,25,06,08,14.60
2006,06,25,06,09,14.60
2006,06,25,06,10,14.60
2006,06,25,06,11,14.70
2006,06,25,06,12,14.70
2006,06,25,06,13,14.70
2006,06,25,06,14,14.70
2006,06,25,06,15,14.80
2006,06,25,06,16,14.80
2006,06,25,06,17,14.80
2006,06,25,06,18,14.80
2006,06,25,06,19,14.80
2006,06,25,06,20,14.80
2006,06,25,06,21,14.90
2006,06,25,06,22,14.90
2006,06,25,06,23,15.00
2006,06,25,06,24,15.00
2006,06,25,06,25,15.10
2006,06,25,06,26,15.10
2006,06,25,06,27,15.10
2006,06,25,06,28,15.10
2006,06,25,06,29,15.10
2006,06,25,06,30,15.10
2006,06,25,06,31,15.10
2006,06,25,06,32,15.10
2006,06,25,06,33,15.10
2006,06,25,06,34,15.20
2006,06,25,06,35,15.30
2006,06,25,06,36,15.30
2006,06,25,06,37,15.30
2006,06,25,06,38,15.30
2006,06,25,06,39,15.30
2006,06,25,06,40,15.40
2006,06,25,06,41,15.40
2006,06,25,06,42,15.50
2006,06,25,06,43,15.60
2006,06,25,06,44,15.60
2006,06,25,06,45,15.70
2006,06,25,06,46,15.70
2006,06,25,06,47,15.80
2006,06,25,06,48,15.80
2006,06,25,06,49,15.90
2006,06,25,06,50,15.90
2006,06,25,06,51,16.00
2006,06,25,06,52,16.10
2006,06,25,06,53,16.10
2006,06,25,06,54,16.20
2006,06,25,06,55,16.20
2006,06,25,06,56,16.30
2006,06,25,06,57,16.30
2006,06,25,06,58,16.40
2006,06,25,06,59,16.40
2006,06,25,07,00,16.50
2006,06,25,07,01,16.60
2006,06,25,07,02,16.70
2006,06,25,07,03,16.70
2006,06,25,07,04,16.80
2006,06,25,07,05,16.90
2006,06,25,07,06,16.90
2006,06,25,07,07,17.00
2006,06,25,07,08,17.10
2006,06,25,07,09,17.10
2006,06,25,07,10,17.20
2006,06,25,07,11,17.30
2006,06,25,07,12,17.40
2006,06,25,07,13,17.40
2006,06,25,07,14,17.50
2006,06,25,07,15,17.60
2006,06,25,07,16,17.70
2006,06,25,07,17,17.80
2006,06,25,07,18,17.90
2006,06,25,07,19,17.90
2006,06,25,07,20,18.00
2006,06,25,07,21,18.10
2006,06,25,07,22,18.20
2006,06,25,07,23,18.30
2006,06,25,07,24,18.40
2006,06,25,07,25,18.60
2006,06,25,07,26,18.80
2006,06,25,07,27,19.00
2006,06,25,07,28,19.20
2006,06,25,07,29,19.50
2006,06,25,07,30,19.70
2006,06,25,07,31,19.90
2006,06,25,07,32,20.10
2006,06,25,07,33,20.20
2006,06,25,07,34,20.40
2006,06,25,07,35,20.50
2006,06,25,07,36,20.70
2006,06,25,07,37,20.80
2006,06,25,07,38,21.00
2006,06,25,07,39,21.00
2006,06,25,07,40,21.10
2006,06,25,07,41,21.20
2006,06,25,07,42,21.20
2006,06,25,07,43,21.30
2006,06,25,07,44,21.30
2006,06,25,07,45,21.40
2006,06,25,07,46,21.40
2006,06,25,07,47,21.50
2006,06,25,07,48,21.60
2006,06,25,07,49,21.60
2006,06,25,07,50,21.60
2006,06,25,07,51,21.70
2006,06,25,07,52,21.70
2006,06,25,07,53,21.70
2006,06,25,07,54,21.70
2006,06,25,07,55,21.70
2006,06,25,07,56,21.60
2006,06,25,07,57,21.60
2006,06,25,07,58,21.60
2006,06,25,07,59,21.60
2006,06,25,08,00,21.60
2006,06,25,08,01,21.60
2006,06,25,08,02,21.60
2006,06,25,08,03,21.60
2006,06,25,08,04,21.60
2006,06,25,08,05,21.60
2006,06,25,08,06,21.60
2006,06,25,08,07,21.60
2006,06,25,08,08,21.60
2006,06,25,08,09,21.60
2006,06,25,08,10,21.60
2006,06,25,08,11,21.60
2006,06,25,08,12,21.60
2006,06,25,08,13,21.60
2006,06,25,08,14,21.60
2006,06,25,08,15,21.70
2006,06,25,08,16,21.70
2006,06,25,08,17,21.60
2006,06,25,08,18,21.60
2006,06,25,08,19,21.50
2006,06,25,08,20,21.40
2006,06,25,08,21,21.30
2006,06,25,08,22,21.30
2006,06,25,08,23,21.30
2006,06,25,08,24,21.40
2006,06,25,08,25,21.50
2006,06,25,08,26,21.60
2006,06,25,08,27,21.60
2006,06,25,08,28,21.70
2006,06,25,08,29,21.80
2006,06,25,08,30,21.90
2006,06,25,08,31,22.00
2006,06,25,08,32,22.10
2006,06,25,08,33,22.20
2006,06,25,08,34,22.40
2006,06,25,08,35,22.40
2006,06,25,08,36,22.50
2006,06,25,08,37,22.40
2006,06,25,08,38,22.30
2006,06,25,08,39,22.20
2006,06,25,08,40,22.00
2006,06,25,08,41,22.00
2006,06,25,08,42,21.90
2006,06,25,08,43,21.90
2006,06,25,08,44,22.00
2006,06,25,08,45,22.10
2006,06,25,08,46,22.10
2006,06,25,08,47,22.20
2006,06,25,08,48,22.30
2006,06,25,08,49,22.40
2006,06,25,08,50,22.40
2006,06,25,08,51,22.40
2006,06,25,08,52,22.50
2006,06,25,08,53,22.50
2006,06,25,08,54,22.60
2006,06,25,08,55,22.50
2006,06,25,08,56,22.50
2006,06,25,08,57,22.50
2006,06,25,08,58,22.40
2006,06,25,08,59,22.40
2006,06,25,09,00,22.40
2006,06,25,09,01,22.50
2006,06,25,09,02,22.60
2006,06,25,09,03,22.70
2006,06,25,09,04,22.80
2006,06,25,09,05,22.90
2006,06,25,09,06,22.90
2006,06,25,09,07,22.90
2006,06,25,09,08,22.90
2006,06,25,09,09,22.90
2006,06,25,09,10,22.90
2006,06,25,09,11,23.00
2006,06,25,09,12,23.10
2006,06,25,09,13,23.10
2006,06,25,09,14,23.20
2006,06,25,09,15,23.30
2006,06,25,09,16,23.40
2006,06,25,09,17,23.50
2006,06,25,09,18,23.60
2006,06,25,09,19,23.70
2006,06,25,09,20,23.70
2006,06,25,09,21,23.70
2006,06,25,09,22,23.70
2006,06,25,09,23,23.80
2006,06,25,09,24,23.80
2006,06,25,09,25,23.70
2006,06,25,09,26,23.80
2006,06,25,09,27,23.80
2006,06,25,09,28,23.90
2006,06,25,09,29,23.90
2006,06,25,09,30,23.90
2006,06,25,09,31,23.80
2006,06,25,09,32,23.50
2006,06,25,09,33,23.20
2006,06,25,09,34,23.10
2006,06,25,09,35,23.10
2006,06,25,09,36,23.10
2006,06,25,09,37,23.10
2006,06,25,09,38,23.10
2006,06,25,09,39,23.10
2006,06,25,09,40,23.10
2006,06,25,09,41,23.20
2006,06,25,09,42,23.20
2006,06,25,09,43,23.10
2006,06,25,09,44,22.90
2006,06,25,09,45,22.80
2006,06,25,09,46,22.70
2006,06,25,09,47,22.80
2006,06,25,09,48,22.70
2006,06,25,09,49,22.60
2006,06,25,09,50,22.50
2006,06,25,09,51,22.50
2006,06,25,09,52,22.40
2006,06,25,09,53,22.40
2006,06,25,09,54,22.50
2006,06,25,09,55,22.60
2006,06,25,09,56,22.70
2006,06,25,09,57,22.70
2006,06,25,09,58,22.80
2006,06,25,09,59,22.80
2006,06,25,10,00,22.90
2006,06,25,10,01,22.90
2006,06,25,10,02,22.90
2006,06,25,10,03,23.10
2006,06,25,10,04,23.20
2006,06,25,10,05,23.20
2006,06,25,10,06,23.20
2006,06,25,10,07,23.30
2006,06,25,10,08,23.40
2006,06,25,10,09,23.50
2006,06,25,10,10,23.70
2006,06,25,10,11,23.70
2006,06,25,10,12,23.80
2006,06,25,10,13,23.80
2006,06,25,10,14,23.80
2006,06,25,10,15,23.70
2006,06,25,10,16,23.70
2006,06,25,10,17,23.70
2006,06,25,10,18,23.70
2006,06,25,10,19,23.70
2006,06,25,10,20,23.80
2006,06,25,10,21,23.90
2006,06,25,10,22,24.00
2006,06,25,10,23,24.10
2006,06,25,10,24,24.10
2006,06,25,10,25,23.90
2006,06,25,10,26,23.80
2006,06,25,10,27,23.70
2006,06,25,10,28,23.70
2006,06,25,10,29,23.70
2006,06,25,10,30,23.90
2006,06,25,10,31,24.00
2006,06,25,10,32,24.10
2006,06,25,10,33,24.10
2006,06,25,10,34,24.10
2006,06,25,10,35,24.10
2006,06,25,10,36,24.10
2006,06,25,10,37,24.20
2006,06,25,10,38,24.30
2006,06,25,10,39,24.40
2006,06,25,10,40,24.40
2006,06,25,10,41,24.30
2006,06,25,10,42,24.20
2006,06,25,10,43,24.20
2006,06,25,10,44,24.30
2006,06,25,10,45,24.40
2006,06,25,10,46,24.50
2006,06,25,10,47,24.60
2006,06,25,10,48,24.60
2006,06,25,10,49,24.50
2006,06,25,10,50,24.50
2006,06,25,10,51,24.50
2006,06,25,10,52,24.60
2006,06,25,10,53,24.50
2006,06,25,10,54,24.40
2006,06,25,10,55,24.40
2006,06,25,10,56,24.30
2006,06,25,10,57,24.40
2006,06,25,10,58,24.40
2006,06,25,10,59,24.50
2006,06,25,11,00,24.50
2006,06,25,11,01,24.40
2006,06,25,11,02,24.30
2006,06,25,11,03,24.40
2006,06,25,11,04,24.40
2006,06,25,11,05,24.40
2006,06,25,11,06,24.50
2006,06,25,11,07,24.50
2006,06,25,11,08,24.80
2006,06,25,11,09,24.90
2006,06,25,11,10,25.10
2006,06,25,11,11,25.20
2006,06,25,11,12,25.10
2006,06,25,11,13,25.10
2006,06,25,11,14,25.10
2006,06,25,11,15,24.90
2006,06,25,11,16,24.90
2006,06,25,11,17,25.00
2006,06,25,11,18,25.10
2006,06,25,11,19,25.10
2006,06,25,11,20,25.00
2006,06,25,11,21,25.00
2006,06,25,11,22,25.00
2006,06,25,11,23,25.00
2006,06,25,11,24,25.00
2006,06,25,11,25,25.10
2006,06,25,11,26,25.10
2006,06,25,11,27,25.30
2006,06,25,11,28,25.40
2006,06,25,11,29,25.60
2006,06,25,11,30,25.70
2006,06,25,11,31,25.70
2006,06,25,11,32,25.80
2006,06,25,11,33,25.70
2006,06,25,11,34,25.60
2006,06,25,11,35,25.60
2006,06,25,11,36,25.50
2006,06,25,11,37,25.30
2006,06,25,11,38,25.30
2006,06,25,11,39,25.40
2006,06,25,11,40,25.40
2006,06,25,11,41,25.30
2006,06,25,11,42,25.30
2006,06,25,11,43,25.30
2006,06,25,11,44,25.30
2006,06,25,11,45,25.30
2006,06,25,11,46,25.10
2006,06,25,11,47,25.00
2006,06,25,11,48,25.10
2006,06,25,11,49,25.10
2006,06,25,11,50,25.20
2006,06,25,11,51,25.20
2006,06,25,11,52,25.20
2006,06,25,11,53,25.20
2006,06,25,11,54,25.00
2006,06,25,11,55,24.90
2006,06,25,11,56,24.80
2006,06,25,11,57,24.70
2006,06,25,11,58,24.60
2006,06,25,11,59,24.50
2006,06,25,12,00,24.40
2006,06,25,12,01,24.40
2006,06,25,12,02,24.40
2006,06,25,12,03,24.50
2006,06,25,12,04,24.60
2006,06,25,12,05,24.50
2006,06,25,12,06,24.50
2006,06,25,12,07,24.40
2006,06,25,12,08,24.40
2006,06,25,12,09,24.40
2006,06,25,12,10,24.50
2006,06,25,12,11,24.60
2006,06,25,12,12,24.60
2006,06,25,12,13,24.70
2006,06,25,12,14,24.80
2006,06,25,12,15,24.90
2006,06,25,12,16,25.10
2006,06,25,12,17,25.10
2006,06,25,12,18,25.00
2006,06,25,12,19,25.10
2006,06,25,12,20,25.10
2006,06,25,12,21,24.90
2006,06,25,12,22,24.90
2006,06,25,12,23,24.90
2006,06,25,12,24,25.00
2006,06,25,12,25,25.10
2006,06,25,12,26,25.20
2006,06,25,12,27,25.30
2006,06,25,12,28,25.50
2006,06,25,12,29,25.70
2006,06,25,12,30,25.90
2006,06,25,12,31,26.00
2006,06,25,12,32,26.00
2006,06,25,12,33,26.00
2006,06,25,12,34,26.20
2006,06,25,12,35,26.20
2006,06,25,12,36,26.20
2006,06,25,12,37,26.10
2006,06,25,12,38,25.90
2006,06,25,12,39,25.60
2006,06,25,12,40,25.50
2006,06,25,12,41,25.40
2006,06,25,12,42,25.30
2006,06,25,12,43,25.10
2006,06,25,12,44,24.90
2006,06,25,12,45,24.90
2006,06,25,12,46,24.90
2006,06,25,12,47,24.80
2006,06,25,12,48,24.90
2006,06,25,12,49,24.90
2006,06,25,12,50,25.10
2006,06,25,12,51,25.20
2006,06,25,12,52,25.20
2006,06,25,12,53,25.20
2006,06,25,12,54,25.20
2006,06,25,12,55,25.30
2006,06,25,12,56,25.40
2006,06,25,12,57,25.50
2006,06,25,12,58,25.40
2006,06,25,12,59,25.30
2006,06,25,13,00,25.40
2006,06,25,13,01,25.40
2006,06,25,13,02,25.40
2006,06,25,13,03,25.40
2006,06,25,13,04,25.40
2006,06,25,13,05,25.60
2006,06,25,13,06,25.70
2006,06,25,13,07,25.90
2006,06,25,13,08,25.80
2006,06,25,13,09,25.90
2006,06,25,13,10,25.90
2006,06,25,13,11,26.10
2006,06,25,13,12,26.10
2006,06,25,13,13,26.20
2006,06,25,13,14,26.40
2006,06,25,13,15,26.50
2006,06,25,13,16,26.60
2006,06,25,13,17,26.60
2006,06,25,13,18,26.60
2006,06,25,13,19,26.60
2006,06,25,13,20,26.60
2006,06,25,13,21,26.70
2006,06,25,13,22,26.90
2006,06,25,13,23,27.10
2006,06,25,13,24,27.20
2006,06,25,13,25,27.10
2006,06,25,13,26,27.00
2006,06,25,13,27,26.90
2006,06,25,13,28,26.90
2006,06,25,13,29,26.90
2006,06,25,13,30,27.00
2006,06,25,13,31,27.10
2006,06,25,13,32,27.20
2006,06,25,13,33,27.40
2006,06,25,13,34,27.60
2006,06,25,13,35,27.80
2006,06,25,13,36,27.90
2006,06,25,13,37,28.00
2006,06,25,13,38,28.20
2006,06,25,13,39,28.20
2006,06,25,13,40,28.20
2006,06,25,13,41,28.20
2006,06,25,13,42,28.00
2006,06,25,13,43,27.90
2006,06,25,13,44,27.80
2006,06,25,13,45,27.80
2006,06,25,13,46,27.80
2006,06,25,13,47,28.00
2006,06,25,13,48,28.00
2006,06,25,13,49,28.00
2006,06,25,13,50,28.00
2006,06,25,13,51,27.90
2006,06,25,13,52,28.00
2006,06,25,13,53,28.00
2006,06,25,13,54,28.20
2006,06,25,13,55,28.30
2006,06,25,13,56,28.30
2006,06,25,13,57,28.10
2006,06,25,13,58,27.90
2006,06,25,13,59,27.70
2006,06,25,14,00,27.50
2006,06,25,14,01,27.40
2006,06,25,14,02,27.60
2006,06,25,14,03,27.70
2006,06,25,14,04,27.80
2006,06,25,14,05,27.90
2006,06,25,14,06,28.00
2006,06,25,14,07,28.00
2006,06,25,14,08,28.00
2006,06,25,14,09,28.00
2006,06,25,14,10,28.00
2006,06,25,14,11,27.90
2006,06,25,14,12,28.00
2006,06,25,14,13,28.00
2006,06,25,14,14,28.10
2006,06,25,14,15,28.10
2006,06,25,14,16,28.20
2006,06,25,14,17,28.30
2006,06,25,14,18,28.30
2006,06,25,14,19,28.40
2006,06,25,14,20,28.50
2006,06,25,14,21,28.60
2006,06,25,14,22,28.60
2006,06,25,14,23,28.40
2006,06,25,14,24,28.10
2006,06,25,14,25,28.00
2006,06,25,14,26,27.90
2006,06,25,14,27,28.00
2006,06,25,14,28,28.00
2006,06,25,14,29,28.10
2006,06,25,14,30,28.10
2006,06,25,14,31,28.30
2006,06,25,14,32,28.40
2006,06,25,14,33,28.40
2006,06,25,14,34,28.30
2006,06,25,14,35,28.30
2006,06,25,14,36,28.40
2006,06,25,14,37,28.50
2006,06,25,14,38,28.60
2006,06,25,14,39,28.70
2006,06,25,14,40,28.70
2006,06,25,14,41,28.70
2006,06,25,14,42,28.70
2006,06,25,14,43,28.80
2006,06,25,14,44,28.80
2006,06,25,14,45,28.90
2006,06,25,14,46,28.90
2006,06,25,14,47,28.70
2006,06,25,14,48,28.50
2006,06,25,14,49,28.40
2006,06,25,14,50,28.30
2006,06,25,14,51,28.30
2006,06,25,14,52,28.20
2006,06,25,14,53,28.30
2006,06,25,14,54,28.30
2006,06,25,14,55,28.40
2006,06,25,14,56,28.40
2006,06,25,14,57,28.50
2006,06,25,14,58,28.60
2006,06,25,14,59,28.80
2006,06,25,15,00,28.90
2006,06,25,15,01,28.90
2006,06,25,15,02,28.90
2006,06,25,15,03,28.80
2006,06,25,15,04,28.80
2006,06,25,15,05,28.90
2006,06,25,15,06,28.90
2006,06,25,15,07,28.90
2006,06,25,15,08,28.90
2006,06,25,15,09,28.90
2006,06,25,15,10,28.90
2006,06,25,15,11,28.90
2006,06,25,15,12,28.80
2006,06,25,15,13,28.70
2006,06,25,15,14,28.70
2006,06,25,15,15,28.70
2006,06,25,15,16,28.60
2006,06,25,15,17,28.60
2006,06,25,15,18,28.60
2006,06,25,15,19,28.50
2006,06,25,15,20,28.40
2006,06,25,15,21,28.30
2006,06,25,15,22,28.30
2006,06,25,15,23,28.30
2006,06,25,15,24,28.30
2006,06,25,15,25,28.40
2006,06,25,15,26,28.50
2006,06,25,15,27,28.60
2006,06,25,15,28,28.50
2006,06,25,15,29,28.40
2006,06,25,15,30,28.40
2006,06,25,15,31,28.30
2006,06,25,15,32,28.30
2006,06,25,15,33,28.20
2006,06,25,15,34,28.10
2006,06,25,15,35,28.20
2006,06,25,15,36,28.10
2006,06,25,15,37,28.10
2006,06,25,15,38,28.10
2006,06,25,15,39,28.10
2006,06,25,15,40,28.20
2006,06,25,15,41,28.20
2006,06,25,15,42,28.30
2006,06,25,15,43,28.40
2006,06,25,15,44,28.40
2006,06,25,15,45,28.40
2006,06,25,15,46,28.30
2006,06,25,15,47,28.20
2006,06,25,15,48,28.10
2006,06,25,15,49,28.00
2006,06,25,15,50,28.10
2006,06,25,15,51,28.20
2006,06,25,15,52,28.30
2006,06,25,15,53,28.40
2006,06,25,15,54,28.50
2006,06,25,15,55,28.40
2006,06,25,15,56,28.40
2006,06,25,15,57,28.40
2006,06,25,15,58,28.40
2006,06,25,15,59,28.30
2006,06,25,16,00,28.30
2006,06,25,16,01,28.30
2006,06,25,16,02,28.30
2006,06,25,16,03,28.30
2006,06,25,16,04,28.20
2006,06,25,16,05,28.20
2006,06,25,16,06,28.10
2006,06,25,16,07,28.10
2006,06,25,16,08,28.10
2006,06,25,16,09,28.00
2006,06,25,16,10,28.00
2006,06,25,16,11,28.00
2006,06,25,16,12,28.00
2006,06,25,16,13,27.90
2006,06,25,16,14,28.00
2006,06,25,16,15,27.90
2006,06,25,16,16,27.90
2006,06,25,16,17,27.90
2006,06,25,16,18,28.00
2006,06,25,16,19,28.10
2006,06,25,16,20,28.20
2006,06,25,16,21,28.20
2006,06,25,16,22,28.20
2006,06,25,16,23,28.10
2006,06,25,16,24,28.10
2006,06,25,16,25,28.10
2006,06,25,16,26,28.00
2006,06,25,16,27,27.90
2006,06,25,16,28,27.90
2006,06,25,16,29,28.00
2006,06,25,16,30,28.00
2006,06,25,16,31,28.00
2006,06,25,16,32,28.10
2006,06,25,16,33,28.20
2006,06,25,16,34,28.20
2006,06,25,16,35,28.30
2006,06,25,16,36,28.40
2006,06,25,16,37,28.50
2006,06,25,16,38,28.60
2006,06,25,16,39,28.70
2006,06,25,16,40,28.80
2006,06,25,16,41,28.90
2006,06,25,16,42,28.90
2006,06,25,16,43,29.00
2006,06,25,16,44,29.10
2006,06,25,16,45,29.20
2006,06,25,16,46,29.40
2006,06,25,16,47,29.40
2006,06,25,16,48,29.50
2006,06,25,16,49,29.50
2006,06,25,16,50,29.60
2006,06,25,16,51,29.70
2006,06,25,16,52,29.70
2006,06,25,16,53,29.70
2006,06,25,16,54,29.60
2006,06,25,16,55,29.50
2006,06,25,16,56,29.50
2006,06,25,16,57,29.40
2006,06,25,16,58,29.30
2006,06,25,16,59,29.30
2006,06,25,17,00,29.30
2006,06,25,17,01,29.40
2006,06,25,17,02,29.40
2006,06,25,17,03,29.40
2006,06,25,17,04,29.50
2006,06,25,17,05,29.70
2006,06,25,17,06,29.70
2006,06,25,17,07,29.90
2006,06,25,17,08,29.90
2006,06,25,17,09,29.90
2006,06,25,17,10,29.90
2006,06,25,17,11,29.70
2006,06,25,17,12,29.60
2006,06,25,17,13,29.70
2006,06,25,17,14,29.70
2006,06,25,17,15,29.70
2006,06,25,17,16,29.70
2006,06,25,17,17,29.60
2006,06,25,17,18,29.50
2006,06,25,17,19,29.40